EW0408 Weather Reports


Display with metric or nautical units.
time (UTC)temp
F
wind
direction
speed
MPH
gust
MPH
rain 1hr
in
rain 24hr
in
rain mn
in
humidity
%
barometer
mb
20260903164003 88 52 2.0 4.0 0.00 0.09 0.00 75 1014.9
20260903163003 87 45 1.0 4.0 0.00 0.09 0.00 75 1015.0
20260903162003 87 43 3.0 8.0 0.00 0.09 0.00 75 1015.2
20260903161003 88 44 3.0 5.0 0.00 0.09 0.00 75 1015.2
20260903160003 89 55 2.0 5.0 0.00 0.09 0.00 76 1015.4
20260903155003 88 83 2.0 4.0 0.00 0.09 0.00 79 1015.5
20260903154003 86 49 3.0 5.0 0.00 0.09 0.00 79 1015.5
20260903153003 85 44 3.0 5.0 0.00 0.09 0.00 80 1015.6
20260903152003 85 50 4.0 7.0 0.00 0.09 0.00 80 1015.6
20260903151003 84 41 3.0 5.0 0.00 0.09 0.00 82 1015.6
20260903150003 84 43 3.0 5.0 0.00 0.09 0.00 81 1015.8
20260903145024 85 50 2.0 5.0 0.00 0.09 0.00 82 1015.7
20260903144003 86 45 1.0 3.0 0.00 0.09 0.00 81 1015.6
20260903143004 86 0 0.0 0.0 0.00 0.09 0.00 80 1015.5
20260903142003 85 0 0.0 0.0 0.00 0.09 0.00 82 1015.5
20260903141003 85 0 0.0 0.0 0.00 0.09 0.00 81 1015.4
20260903140003 85 0 0.0 0.0 0.00 0.09 0.00 83 1015.4
20260903135024 83 0 0.0 0.0 0.00 0.09 0.00 84 1015.4
20260903134003 83 0 0.0 0.0 0.00 0.09 0.00 86 1015.4
20260903133004 82 52 1.0 5.0 0.00 0.09 0.00 87 1015.3
20260903132003 81 0 0.0 0.0 0.00 0.09 0.00 90 1015.2
20260903131024 81 7 0.0 1.0 0.00 0.09 0.00 90 1015.1
20260903130003 81 7 0.0 2.0 0.00 0.09 0.00 90 1015.2
20260903125024 80 356 0.0 2.0 0.00 0.09 0.00 93 1015.0
20260903124024 80 359 0.0 3.0 0.00 0.09 0.00 93 1015.1
20260903123003 80 341 0.0 1.0 0.00 0.09 0.00 93 1015.0
20260903122003 79 0 0.0 0.0 0.00 0.09 0.00 93 1014.9
20260903121003 79 342 0.0 1.0 0.00 0.09 0.00 93 1014.9
20260903120003 79 342 0.0 2.0 0.00 0.09 0.00 93 1014.8
20260903115003 78 342 0.0 1.0 0.00 0.09 0.00 93 1014.6
20260903114004 78 341 0.0 1.0 0.00 0.10 0.00 93 1014.4
20260903113003 78 342 0.0 1.0 0.00 0.10 0.00 93 1014.2
20260903112003 78 0 0.0 0.0 0.00 0.10 0.00 93 1014.1
20260903111003 78 0 0.0 0.0 0.00 0.10 0.00 93 1014.1
20260903110003 78 72 0.0 2.0 0.00 0.10 0.00 93 1013.9
20260903105003 78 52 0.0 3.0 0.00 0.10 0.00 93 1013.6
20260903104003 78 30 1.0 3.0 0.00 0.10 0.00 93 1013.3
20260903103003 78 52 2.0 5.0 0.00 0.10 0.00 93 1013.4
20260903102024 78 53 4.0 8.0 0.00 0.10 0.00 93 1013.4
20260903101003 78 49 2.0 9.0 0.00 0.10 0.00 93 1013.3
20260903100003 78 0 0.0 0.0 0.00 0.10 0.00 93 1013.2
20260903095003 78 0 0.0 0.0 0.00 0.10 0.00 93 1013.1
20260903094003 78 50 0.0 1.0 0.00 0.10 0.00 93 1013.1
20260903093003 78 48 2.0 5.0 0.00 0.10 0.00 93 1013.1
20260903092024 78 47 3.0 5.0 0.00 0.10 0.00 93 1013.1
20260903091003 78 55 1.0 5.0 0.00 0.10 0.00 92 1013.1
20260903090003 78 51 3.0 7.0 0.00 0.10 0.00 93 1013.3
20260903085003 78 0 0.0 0.0 0.00 0.10 0.00 92 1013.2
20260903084005 78 0 0.0 0.0 0.00 0.10 0.00 92 1013.2
20260903083004 78 0 0.0 0.0 0.00 0.10 0.00 92 1013.3
20260903082005 78 0 0.0 0.0 0.00 0.10 0.00 92 1013.4
20260903081004 78 0 0.0 0.0 0.00 0.10 0.00 93 1013.7
20260903080004 78 0 0.0 0.0 0.00 0.10 0.00 93 1013.7
20260903075026 78 0 0.0 0.0 0.00 0.10 0.00 92 1013.6
20260903074026 78 0 0.0 0.0 0.00 0.10 0.00 92 1013.6
20260903073004 78 0 0.0 0.0 0.00 0.10 0.00 92 1013.7
20260903072005 78 0 0.0 0.0 0.00 0.10 0.00 92 1013.7
20260903071005 78 0 0.0 0.0 0.00 0.10 0.00 92 1013.5
20260903070004 78 0 0.0 0.0 0.00 0.10 0.00 91 1013.6
20260903065005 78 0 0.0 0.0 0.00 0.10 0.00 91 1013.7
20260903064004 78 0 0.0 0.0 0.00 0.10 0.00 91 1013.7
20260903063004 78 0 0.0 0.0 0.00 0.10 0.00 91 1013.7
20260903062004 79 58 0.0 2.0 0.00 0.10 0.00 91 1014.0
20260903061004 79 56 3.0 5.0 0.00 0.10 0.00 91 1014.0
20260903060004 79 53 4.0 7.0 0.00 0.10 0.00 91 1014.1
20260903055004 79 52 3.0 7.0 0.00 0.10 0.00 91 1014.0
20260903054004 79 53 3.0 5.0 0.00 0.10 0.00 90 1013.9
20260903053004 79 55 4.0 6.0 0.00 0.10 0.00 90 1014.0
20260903052004 79 48 1.0 4.0 0.00 0.10 0.00 90 1014.1
20260903051004 79 50 4.0 8.0 0.00 0.10 0.00 89 1014.2
20260903050004 80 50 1.0 6.0 0.00 0.10 0.00 89 1014.1
20260903045004 80 65 0.0 1.0 0.00 0.10 0.00 89 1014.1
20260903044004 80 65 0.0 2.0 0.00 0.10 0.00 89 1014.6
20260903043004 80 0 0.0 0.0 0.00 0.10 0.00 89 1014.8
20260903042004 80 79 0.0 1.0 0.00 0.10 0.00 88 1014.7
20260903041004 80 0 0.0 0.0 0.00 0.10 0.00 88 1015.1
20260903040008 80 0 0.0 0.0 0.00 0.10 0.00 88 1015.3
20260903035004 80 60 1.0 7.0 0.00 0.10 0.10 87 1015.2
20260903034005 80 0 0.0 0.0 0.00 0.10 0.10 88 1015.3
20260903033026 80 38 1.0 3.0 0.00 0.10 0.10 87 1015.2
20260903032026 80 49 1.0 8.0 0.00 0.11 0.10 87 1015.2
20260903031004 80 53 3.0 8.0 0.00 0.11 0.10 87 1015.4
20260903030004 80 47 2.0 5.0 0.00 0.11 0.10 87 1015.4
20260903025004 80 56 1.0 9.0 0.00 0.11 0.10 87 1015.5
20260903024004 81 55 3.0 8.0 0.00 0.11 0.10 87 1015.4
20260903023025 81 57 3.0 9.0 0.00 0.11 0.10 88 1015.5
20260903022025 81 47 1.0 8.0 0.00 0.11 0.10 89 1015.3
20260903021004 81 0 0.0 0.0 0.00 0.11 0.10 89 1015.1
20260903020004 81 69 1.0 3.0 0.00 0.11 0.10 89 1015.2
20260903015004 81 50 5.0 9.0 0.00 0.11 0.10 88 1015.1
20260903014004 81 46 8.0 11.0 0.00 0.11 0.10 88 1014.8
20260903013004 81 44 6.0 9.0 0.00 0.11 0.10 89 1014.7
20260903012004 81 36 4.0 8.0 0.00 0.11 0.10 89 1014.7
20260903011004 80 38 2.0 6.0 0.09 0.11 0.10 90 1014.6
20260903010004 79 0 0.0 0.0 0.09 0.11 0.10 90 1014.6
20260903005004 79 356 0.0 3.0 0.09 0.11 0.10 88 1014.3
20260903004004 79 356 0.0 4.0 0.09 0.11 0.10 87 1014.1
20260903003004 80 358 0.0 2.0 0.09 0.11 0.10 85 1014.1
20260903002004 81 46 7.0 12.0 0.09 0.11 0.10 82 1014.0
20260903001004 82 48 6.0 10.0 0.00 0.02 0.01 82 1013.8
20260903000004 83 46 5.0 9.0 0.00 0.02 0.01 81 1013.9
20260902235005 83 42 3.0 6.0 0.00 0.02 0.01 81 1013.7
20260902234025 83 54 3.0 7.0 0.00 0.03 0.01 82 1013.8
20260902233004 83 45 4.0 8.0 0.00 0.03 0.01 82 1013.8
20260902232004 84 53 5.0 10.0 0.00 0.03 0.01 80 1013.8
20260902231004 85 53 6.0 11.0 0.00 0.03 0.01 80 1013.6
20260902230004 85 55 6.0 11.0 0.00 0.04 0.01 81 1013.3
20260902225004 85 55 8.0 12.0 0.00 0.04 0.01 79 1013.3
20260902224004 86 51 7.0 10.0 0.00 0.05 0.01 80 1013.0
20260902223026 86 54 5.0 10.0 0.00 0.06 0.01 78 1013.0
20260902222004 86 54 7.0 13.0 0.00 0.09 0.01 76 1013.2
20260902221025 86 54 10.0 16.0 0.00 0.11 0.01 76 1013.1
20260902220004 86 56 8.0 15.0 0.00 0.13 0.01 77 1013.1
20260902215004 86 54 10.0 16.0 0.00 0.13 0.01 78 1013.0
20260902214004 87 53 11.0 16.0 0.00 0.13 0.01 76 1013.0
20260902213026 87 52 12.0 18.0 0.00 0.13 0.01 75 1013.2
20260902212004 87 49 13.0 17.0 0.00 0.14 0.01 76 1013.1
20260902211004 87 52 10.0 17.0 0.00 0.16 0.01 75 1013.2
20260902210004 87 53 11.0 18.0 0.00 0.18 0.01 76 1013.1
20260902205004 89 54 7.0 20.0 0.00 0.24 0.01 73 1013.1
20260902204004 90 50 5.0 15.0 0.00 0.32 0.01 71 1013.1
20260902203005 93 0 0.0 0.0 0.00 0.38 0.01 65 1013.0
20260902202004 92 0 0.0 0.0 0.00 0.68 0.01 65 1013.1
20260902201004 92 0 0.0 0.0 0.00 1.18 0.01 66 1013.2
20260902200004 92 0 0.0 0.0 0.00 1.45 0.01 65 1013.4
20260902195004 92 0 0.0 0.0 0.00 1.45 0.01 66 1013.5
20260902194025 92 0 0.0 0.0 0.00 1.45 0.01 67 1013.6
20260902193004 92 0 0.0 0.0 0.00 1.46 0.01 67 1013.7
20260902192004 92 0 0.0 0.0 0.00 1.46 0.01 65 1013.7
20260902191004 92 0 0.0 0.0 0.00 1.46 0.01 66 1014.0
20260902190004 92 0 0.0 0.0 0.00 1.46 0.01 67 1014.1
20260902185025 91 0 0.0 0.0 0.00 1.46 0.01 69 1014.2
20260902184025 91 0 0.0 0.0 0.00 1.46 0.01 67 1014.5
20260902183004 90 0 0.0 0.0 0.00 1.47 0.01 68 1014.5
20260902182005 90 0 0.0 0.0 0.00 1.56 0.01 70 1014.7
20260902181004 90 0 0.0 0.0 0.00 1.70 0.01 70 1014.9
20260902180025 89 0 0.0 0.0 0.00 1.70 0.01 70 1014.9
20260902175004 89 0 0.0 0.0 0.00 1.70 0.01 71 1015.1
20260902174004 89 0 0.0 0.0 0.00 1.70 0.01 70 1015.2
20260902173004 89 0 0.0 0.0 0.00 1.70 0.01 71 1015.2
20260902172025 89 0 0.0 0.0 0.00 1.70 0.01 70 1015.3
20260902171004 89 0 0.0 0.0 0.00 1.70 0.01 73 1015.5
20260902170004 88 0 0.0 0.0 0.00 1.70 0.01 73 1015.6
20260902165025 88 0 0.0 0.0 0.00 1.70 0.01 74 1015.9